User: anonymous   Login
Location: Unspecified
(0.0000°N, 0.0000°E)
Time: 07:47:04
(UTC+00:00)
Language:

RISAT 1 - Orbit

View from above orbital plane
View from above orbital plane
View from above satellite
View from above satellite

Ground track
Ground track

The orbit data is extracted from the following two-line orbital elements,

1 38248U 12017A   14298.11621652  .00024633  00000-0  15609-2 0  8231
2 38248 097.5627 303.4336 0004421 128.4525 317.3827 15.08923583137559
Epoch (UTC): 25 October 2014 02:47:21
Eccentricity: 0.0004421
inclination: 97.5627°
perigee height: 536 km
apogee height: 542 km
right ascension of ascending node: 303.4336°
argument of perigee: 128.4525°
revolutions per day: 15.08923583
mean anomaly at epoch: 317.3827°
orbit number at epoch: 13755

The dashed part of the orbit path shows where the satellite is in the earth's shadow,  

DLR